Content
SEND FEEDBACK

Daily
Averages
Monthly
Summary
United States of America

FORT COBB, OKLAHOMA


Home > North America > United States > Oklahoma
Elevation: 1260 feet     Latitude: 35 06N     Longitude: 098 26W

WEATHER
 
SELECT A DAY
Number of Records: 327,302;   Date Range: 3/30/01 - 8/30/14
 
SHARE

PRINT THIS DATA

[ ← Previous Day ]
WEATHER ALMANAC - FEBRUARY 5, 2013
[ Next Day → ]
[ °C ]   °F
Weather ElementAverageHighLow
Temperature45.8 °F66.2 °F (3:15 pm)30.2 °F (5:55 am)
Dewpoint40.8 °F53.6 °F (1:35 pm)28.4 °F (5:55 am)
Humidity85.7 %100 % (8:55 am)43 % (4:35 pm)
Barometer29.99 in30.04 in (10:35 am)29.93 in (2:55 am)
Wind Speed2.7 mph6.9 mph (3:15 am)
Weather ElementAverage
Visibility7.3 mi
Wind DirectionESE (118.6 °)

Weather ElementTotal
Precipitation---
Heating Degree Days16.8 (Base 65)
Averaged from 69 records on February 5, 2013
WEATHER CONDITIONS BREAKOUT
WIND DIRECTION BREAKOUT
WEATHER BY HOUR - FEBRUARY 5, 2013
[ °C ]   °F
Local TimeTemperatureDewpointHumidityBarometerVisibilityWind DirectionWind SpeedGust SpeedPrecipitationEventsConditions
12:35 AM35.6 °F32.0 °F87 %29.95 in10.0 miNNW (330°)4.6 mphScattered Clouds
12:55 AM35.6 °F32.0 °F87 %29.95 in10.0 miNNW (330°)4.6 mphClear
1:15 AM35.6 °F32.0 °F87 %29.95 in10.0 miNNW (330°)4.6 mphClear
1:35 AM35.6 °F32.0 °F87 %29.94 in10.0 miNNW (330°)3.5 mphClear
1:55 AM33.8 °F30.2 °F87 %29.94 in10.0 miNW (320°)4.6 mphClear
2:15 AM33.8 °F32.0 °F93 %29.94 in10.0 miWNW (300°)4.6 mphClear
2:35 AM33.8 °F32.0 °F93 %29.94 in10.0 miWNW (290°)4.6 mphClear
2:55 AM33.8 °F32.0 °F93 %29.93 in10.0 miWest (280°)4.6 mphClear
3:15 AM32.0 °F30.2 °F93 %29.93 in10.0 miWNW (290°)6.9 mphClear
3:35 AM33.8 °F32.0 °F93 %29.93 in10.0 miNW (320°)4.6 mphClear
3:55 AM32.0 °F30.2 °F93 %29.93 in10.0 miNNW (330°)4.6 mphClear
4:15 AM32.0 °F30.2 °F93 %29.93 in10.0 miWest (280°)5.8 mphClear
4:35 AM32.0 °F30.2 °F93 %29.93 in10.0 miNW (320°)3.5 mphClear
4:55 AM32.0 °F30.2 °F93 %29.94 in10.0 miNNW (330°)4.6 mphClear
5:15 AM32.0 °F30.2 °F93 %29.95 in10.0 miNorth (10°)5.8 mphClear
5:35 AM32.0 °F30.2 °F93 %29.95 in10.0 miCalmClear
5:55 AM30.2 °F28.4 °F93 %29.95 in10.0 miWSW (240°)5.8 mphClear
6:15 AM30.2 °F28.4 °F93 %29.96 in10.0 miWest (270°)3.5 mphClear
6:55 AM30.2 °F28.4 °F93 %29.97 in10.0 miNorth (10°)3.5 mphClear
7:15 AM32.0 °F30.2 °F93 %29.97 in10.0 miCalmMostly Cloudy
7:35 AM33.8 °F32.0 °F93 %29.98 in10.0 miCalmOvercast
7:55 AM33.8 °F32.0 °F93 %29.99 in10.0 miCalmOvercast
8:15 AM35.6 °F33.8 °F93 %30.00 in10.0 miCalmOvercast
8:35 AM35.6 °F33.8 °F93 %30.01 in10.0 miCalmOvercast
8:55 AM37.4 °F37.4 °F100 %30.01 in5.0 miCalmOvercast
9:15 AM37.4 °F37.4 °F100 %30.01 in0.5 miSSW (210°)3.5 mphFogFog
9:35 AM37.4 °F37.4 °F100 %30.02 in0.2 miCalmFogFog
9:55 AM41.0 °F41.0 °F100 %30.02 in0.5 miCalmFogFog
10:15 AM42.8 °F42.8 °F100 %30.03 in0.2 miCalmFogFog
10:35 AM42.8 °F42.8 °F100 %30.04 in0.5 miCalmFogFog
10:55 AM44.6 °F44.6 °F100 %30.04 in1.0 miCalmOvercast
11:15 AM46.4 °F44.6 °F93 %30.04 in1.2 miCalmOvercast
11:35 AM48.2 °F48.2 °F100 %30.04 in1.2 miCalmOvercast
11:55 AM48.2 °F48.2 °F100 %30.04 in1.2 miNNW (340°)3.5 mphOvercast
12:15 PM50.0 °F50.0 °F100 %30.04 in7.0 miNW (320°)3.5 mphOvercast
12:35 PM53.6 °F51.8 °F94 %30.04 in7.0 miNorth (360°)3.5 mphOvercast
12:55 PM53.6 °F51.8 °F94 %30.03 in7.0 miCalmOvercast
1:15 PM55.4 °F51.8 °F88 %30.02 in10.0 miCalmScattered Clouds
1:35 PM59.0 °F53.6 °F82 %30.01 in10.0 miCalmClear
1:55 PM60.8 °F51.8 °F72 %30.00 in10.0 miCalmClear
2:15 PM62.6 °F46.4 °F55 %29.99 in10.0 miNorth (360°)3.5 mphScattered Clouds
2:35 PM62.6 °F46.4 °F55 %29.99 in10.0 miNNE (20°)4.6 mphScattered Clouds
2:55 PM64.4 °F42.8 °F45 %29.99 in10.0 miNE (40°)5.8 mphScattered Clouds
3:15 PM66.2 °F44.6 °F46 %29.98 in10.0 miEast (80°)3.5 mphClear
3:35 PM66.2 °F46.4 °F49 %29.98 in10.0 miNE (40°)4.6 mphClear
3:55 PM66.2 °F46.4 °F49 %29.98 in10.0 miCalmClear
4:15 PM66.2 °F44.6 °F46 %29.98 in10.0 miCalmClear
4:35 PM66.2 °F42.8 °F43 %29.98 in10.0 miCalmClear
4:55 PM66.2 °F44.6 °F46 %29.97 in10.0 miCalmClear
5:15 PM62.6 °F42.8 °F48 %29.97 in10.0 miNE (50°)3.5 mphClear
5:35 PM60.8 °F42.8 °F52 %29.97 in10.0 miCalmClear
5:55 PM60.8 °F39.2 °F45 %29.97 in10.0 miNNE (20°)3.5 mphClear
6:15 PM55.4 °F44.6 °F67 %29.98 in10.0 miSE (140°)6.9 mphClear
6:35 PM55.4 °F51.8 °F88 %29.99 in10.0 miSE (130°)6.9 mphClear
6:55 PM55.4 °F51.8 °F88 %29.99 in10.0 miSSE (150°)5.8 mphClear
7:15 PM53.6 °F51.8 °F94 %30.00 in10.0 miSSE (150°)5.8 mphClear
7:35 PM53.6 °F51.8 °F94 %30.01 in10.0 miSSE (160°)5.8 mphClear
7:55 PM51.8 °F50.0 °F94 %30.01 in7.0 miSSE (160°)5.8 mphClear
8:15 PM51.8 °F50.0 °F94 %30.02 in10.0 miCalmClear
8:35 PM48.2 °F46.4 °F93 %30.03 in7.0 miESE (110°)4.6 mphClear
9:15 PM48.2 °F48.2 °F100 %30.03 in4.0 miSE (140°)3.5 mphClear
9:35 PM48.2 °F48.2 °F100 %30.03 in1.5 miSE (140°)3.5 mphMist
9:55 PM48.2 °F48.2 °F100 %30.03 in0.8 miCalmMist
10:15 PM48.2 °F48.2 °F100 %30.03 in0.5 miEast (90°)3.5 mphFogFog
10:35 PM42.8 °F42.8 °F100 %30.04 in0.8 miCalmOvercast
10:55 PM42.8 °F42.8 °F100 %30.04 in0.8 miNE (40°)3.5 mphOvercast
11:15 PM42.8 °F42.8 °F100 %30.03 in0.8 miNNE (20°)3.5 mphOvercast
11:35 PM42.8 °F42.8 °F100 %30.04 in0.5 miCalmFogFog
11:55 PM42.8 °F42.8 °F100 %30.03 in0.5 miCalmFogFog
Hourly data recorded from KCHK, located miles away from Fort Cobb, Oklahoma







STORIES FROM OUR PARTNERS